Location: Saginaw
(43.4195°N, 83.9508°W)
Time: 18:46:46
(UTC-05:00)

Daily predictions for brighter satellites

Satellite Brightness Start Highest point End
(mag) Time Altitude Azimuth Time Altitude Azimuth Time Altitude Azimuth
IRS-1A Rocket 4.2 17:22:34 10° SSE 17:28:03 79° ENE 17:33:35 10° NNW
ASTEX 1 4.1 17:30:07 10° N 17:35:04 61° W 17:39:59 10° SSW
Cosmos 1536 2.9 17:31:02 10° N 17:35:04 62° E 17:39:05 10° SSE
Cosmos 1606 4.1 17:32:01 10° SSW 17:35:46 43° WNW 17:39:32 10° N
SL-16 R/B 4.5 17:32:08 10° N 17:37:02 26° WNW 17:41:56 10° WSW
Cosmos 2251 Rocket 4.3 17:33:11 10° N 17:37:56 31° ENE 17:42:37 10° ESE
Cosmos 2263 Rocket 3.1 17:33:27 10° SW 17:38:51 48° WNW 17:44:19 10° NNE
Meteor 1-11 Rocket 4.1 17:36:31 10° NNW 17:42:04 70° W 17:47:32 10° S
ISS -2.6 17:43:11 10° SSW 17:46:19 43° SE 17:49:08 12° ENE
Cosmos 1633 3.2 17:44:12 10° NNW 17:47:44 58° W 17:51:15 10° S
MSX 4.0 17:48:17 10° SE 17:53:47 49° ENE 17:59:18 10° N
SL-27 R/B 3.1 17:50:36 10° N 17:54:02 37° ENE 17:57:27 10° SE
Okean 1 Rocket 4.2 17:51:44 10° NNW 17:55:55 47° W 18:00:05 10° SSW
Cosmos 1812 3.7 17:53:39 10° SSE 17:56:55 27° E 18:00:12 10° NNE
SJ-12 3.9 17:54:58 10° SSE 17:59:02 84° ENE 18:03:10 10° N
COSMO-SKYMED 1 3.6 17:57:48 10° NE 18:01:29 26° E 18:05:08 10° SSE
CZ-4 R/B 1.7 17:57:19 10° S 18:01:31 76° WSW 18:05:41 10° NNW
Okean 3 4.1 17:58:02 10° SSW 18:02:16 60° W 18:06:31 10° N
Cosmos 1544 Rocket 3.7 17:58:01 10° N 18:02:23 51° ENE 18:06:44 10° SSE
Cosmos 158 Rocket 4.1 17:57:15 10° NNW 18:02:41 87° WSW 18:07:57 10° SSE
Cosmos 1844 Rocket 2.7 17:59:36 10° SSW 18:05:06 66° ESE 18:10:42 10° NNE
Cosmos 1975 Rocket 3.1 18:02:14 10° S 18:06:33 80° W 18:10:54 10° N
GEOS 3 Rocket 3.8 18:02:49 10° ESE 18:07:43 48° NE 18:12:38 10° NNW
CZ-2C R/B 2.5 18:03:15 10° SSE 18:08:12 87° WSW 18:13:20 10° NNW
Meteor 1-12 Rocket 4.5 18:05:41 10° N 18:11:16 49° ENE 18:16:55 10° SSE
Cosmos 1238 Rocket 2.5 18:09:06 10° SSE 18:11:54 40° E 18:13:47 18° NNE
MONITOR-E 4.4 18:09:38 10° SSE 18:12:43 48° ENE 18:15:50 10° N
CZ-3A R/B 3.6 18:10:21 10° WSW 18:15:02 68° NNW 18:35:18 14° ENE
Cosmos 1844 3.7 18:09:55 10° S 18:15:22 59° ESE 18:20:25 12° NNE
Cosmos 1975 3.4 18:12:25 10° N 18:16:11 34° ENE 18:19:54 10° SE
CRYOSAT 2 4.5 18:11:16 10° N 18:16:12 82° W 18:21:05 10° S
BREEZE-M DEB (TANK) 2.0 18:15:37 10° W 18:17:45 47° NNW 18:18:34 29° NE
Cosmos 1536 Rocket 3.8 18:18:48 10° SSE 18:23:05 48° E 18:27:22 10° NNE
CORIOLIS 4.4 18:17:55 10° S 18:23:20 74° WSW 18:28:44 10° NNW
COSMOS 2441 4.3 18:18:58 10° SSE 18:23:47 72° ENE 18:28:41 10° N
SPOT 3 Rocket 4.3 18:21:44 10° S 18:26:50 57° WSW 18:31:57 10° NNW
SL-24 DEB 4.3 18:22:09 10° NNE 18:26:52 59° E 18:31:31 10° S
SMAP 3.9 18:24:10 10° S 18:28:42 53° W 18:33:16 10° NNW
YAOGAN 1 3.4 18:25:55 10° S 18:30:09 53° W 18:34:24 10° NNW
Cosmos 2278 Rocket 2.4 18:27:42 10° S 18:33:08 50° ESE 18:36:35 22° NE
COSMOS 2406 4.4 18:28:11 10° NW 18:33:37 46° WSW 18:39:04 10° S
SL-8 Rocket 4.3 18:28:07 10° NNW 18:34:14 68° W 18:40:19 10° S
IDEFIX/ARIANE 42P 3.8 18:38:18 10° S 18:43:14 43° W 18:48:12 10° NNW
Cosmos 2366 rocket 4.2 18:37:59 10° N 18:44:22 78° W 18:50:39 10° S
Abrixas 3.8 18:41:49 10° WNW 18:44:08 29° N 18:44:08 29° N
Cosmos 2218 Rocket 4.4 18:39:55 10° NNW 18:46:11 66° W 18:52:19 10° S
Cosmos 1484 Rocket 2.8 18:43:22 10° S 18:47:08 76° WSW 18:50:54 10° NNW
OTV 4 3.2 18:46:31 10° SW 18:48:14 14° SSW 18:49:39 11° SSE
CZ-3B DEB 2.3 18:45:42 10° SW 18:49:40 89° NW 18:55:16 25° NE
SKYMED 2 3.5 18:46:12 16° NNE 18:49:44 86° ESE 18:54:04 10° SSW
USA 234 4.0 18:45:29 19° NE 18:49:55 45° NNW 18:56:02 10° W
Genesis I 4.0 18:48:05 10° NNW 18:50:56 34° NNE 18:50:56 34° NNE
Cosmos 1455 Rocket 3.6 18:47:46 10° NNW 18:52:06 59° W 18:56:26 10° S
Timation 2 Rocket 4.3 18:48:51 10° NNW 18:55:28 52° ENE 18:59:44 23° SE
Cosmos 2082 Rocket 2.5 18:51:51 10° NNW 18:57:13 42° ENE 18:57:45 41° ENE
NOSS 3-4 (A) 4.5 18:52:55 10° NNW 18:59:00 32° NE 18:59:50 31° NE
NOSS 3-4 (C) 4.5 18:53:02 10° NNW 18:59:06 32° NE 18:59:55 31° NE
Cosmos 1241 Rocket 4.5 18:53:04 10° NNW 18:59:44 83° ENE 19:06:20 10° SE
Cosmos 1833 Rocket 3.1 18:57:54 10° NNW 19:02:45 39° NE 19:02:45 39° NE
BREEZE-M DEB (TANK) 3.8 18:58:23 10° WNW 19:04:30 37° N 19:05:27 33° NNE
Cosmos 375 4.2 19:00:55 10° NW 19:05:28 86° NE 19:05:55 69° SE
NOSS 3-3 (A) 3.9 19:00:46 10° SSW 19:06:56 78° ESE 19:09:41 37° NE
NOSS 3-3 (C) 3.9 19:00:51 10° SSW 19:07:02 77° ESE 19:09:45 38° NE
SL-8 R/B 3.7 19:03:57 10° SW 19:08:40 62° SSE 19:09:02 60° ESE
Cosmos 1809 Rocket 4.4 19:03:36 10° N 19:09:49 86° W 19:15:56 10° S
Cosmos 1500 3.5 19:07:37 10° NNW 19:11:24 64° W 19:15:12 10° S
Cosmos 2239 Rocket 4.4 19:05:21 10° N 19:11:30 58° ENE 19:17:33 10° SSE
Okean 1 4.1 19:08:15 10° SSW 19:12:12 52° W 19:14:31 23° N
Meteor 1-28 Rocket 3.5 19:15:05 65° SSW 19:15:05 65° SSW 19:18:21 10° SSW
ATLAS 2AS CENTAUR R/B 3.6 19:07:01 10° NW 19:14:53 57° WSW 19:22:12 10° SSE
NOAA 12 4.0 19:11:05 10° SSE 19:16:23 88° W 19:21:41 10° NNW
METEOR-M 4.0 19:11:49 10° SSE 19:17:09 80° ENE 19:22:31 10° N
Cosmos 1821 Rocket 3.8 19:13:49 10° N 19:19:53 64° E 19:25:55 10° SSE
ISS -1.3 19:19:51 10° W 19:21:49 26° WNW 19:21:49 26° WNW
Cosmos 1346 Rocket 3.8 19:29:25 10° SSW 19:32:45 44° W 19:32:45 44° W
COSMO-SKYMED 1 4.4 19:34:47 15° NNW 19:37:36 30° WNW 19:41:22 10° SW
Nadezhda 3 Rocket 4.4 19:35:46 10° SSW 19:41:52 62° W 19:48:05 10° N
SL-24 R/B - RUBIN 2 4.4 19:42:20 10° SSW 19:48:41 89° ESE 19:48:47 88° NE
ATLAS 3B CENTAUR R/B 4.2 19:47:01 10° WSW 19:58:07 28° SSW 20:00:10 25° S
Cosmos 2297 4.2 19:54:50 10° SSW 19:59:27 57° WSW 19:59:27 57° WSW
CZ-3A R/B 4.3 19:59:15 10° WNW 20:07:08 30° NNW 20:07:18 30° N
BREEZE-M R/B 4.5 20:01:32 10° WSW 20:08:02 49° WNW 20:08:02 49° WNW
Cosmos 2278 Rocket 3.9 20:12:43 10° WSW 20:17:28 27° NW 20:18:28 26° NW
FALCON 9 R/B 3.7 20:13:48 10° WSW 20:26:28 42° SSW 20:26:28 42° SSW
Cosmos 2082 Rocket 4.0 20:36:16 10° NW 20:39:41 27° WNW 20:39:41 27° WNW
CZ-3B DEB 4.4 21:19:57 10° WNW 21:24:12 38° NW 21:24:12 38° NW
